| Temperature (°F) | Max | Average | Min |
|---|---|---|---|
| Max Temperature | 82 | 68.5 | 52 |
| Avg Temperature | 64.38 | 52.24 | 40.67 |
| Min Temperature | 49 | 37.5 | 27 |
| Dew Point (°F) | Max | Average | Min |
|---|---|---|---|
| Dew Point | 54 | 30.19 | 10 |
| Precipitation (in) | Max | Average | Min | Sum |
|---|---|---|---|---|
| Precipitation | 0.08 | 0.00 | 0.00 | 0.11 |
| Snowdepth | 0.00 | 0.00 | 0.00 | 0.00 |
| Wind (mph) | Max | Average | Min |
|---|---|---|---|
| Wind | 30 | 5.87 | 0 |
| Gust Wind | 33 | 1.18 | 0 |
| Sea Level Pressure (in) | Max | Average | Min |
|---|---|---|---|
| Sea Level Pressure | 25.38 | 25.04 | 24.34 |
| Date | Temperature (°F) | Dew Point (°F) | Humidity (%) | Wind Speed (mph) | Pressure (in) | Precipitation (in) | ||||||||||
|---|---|---|---|---|---|---|---|---|---|---|---|---|---|---|---|---|
| Max | Avg | Min | Max | Avg | Min | Max | Avg | Min | Max | Avg | Min | Max | Avg | Min | ||
| 10/31/2022 | 68 | 48.5 | 33 | 23 | 19.2 | 11 | 61 | 36.2 | 11 | 10 | 4.6 | 0 | 25.0 | 24.9 | 24.9 | 0.00 |
| 10/30/2022 | 63 | 46.5 | 32 | 22 | 18.5 | 14 | 57 | 36.2 | 16 | 8 | 4.1 | 0 | 25.1 | 25.0 | 25.0 | 0.00 |
| 10/29/2022 | 63 | 44.7 | 29 | 27 | 19.9 | 11 | 85 | 44.0 | 13 | 14 | 5.2 | 0 | 25.2 | 25.1 | 25.1 | 0.00 |
| 10/28/2022 | 60 | 43.4 | 27 | 26 | 22.9 | 17 | 85 | 50.1 | 19 | 10 | 4.1 | 0 | 25.2 | 25.2 | 25.1 | 0.03 |
| 10/27/2022 | 53 | 40.7 | 34 | 34 | 28.3 | 20 | 100 | 65.3 | 32 | 21 | 12.6 | 0 | 25.2 | 25.0 | 24.8 | 0.00 |
| 10/26/2022 | 59 | 45.4 | 36 | 29 | 27.3 | 25 | 70 | 51.4 | 30 | 12 | 5.8 | 0 | 25.0 | 24.9 | 24.8 | 0.00 |
| 10/25/2022 | 62 | 43.0 | 27 | 29 | 20.8 | 16 | 75 | 45.5 | 21 | 14 | 5.8 | 0 | 25.0 | 24.9 | 24.9 | 0.00 |
| 10/24/2022 | 54 | 41.4 | 29 | 29 | 17.7 | 10 | 85 | 43.4 | 19 | 10 | 5.1 | 0 | 24.9 | 24.8 | 24.8 | 0.00 |
| 10/23/2022 | 66 | 53.8 | 37 | 36 | 27.3 | 19 | 60 | 37.6 | 19 | 30 | 10.9 | 0 | 24.7 | 24.5 | 24.3 | 0.00 |
| 10/22/2022 | 78 | 64.4 | 49 | 28 | 19.4 | 15 | 38 | 19.0 | 10 | 23 | 8.0 | 0 | 24.6 | 24.6 | 24.4 | 0.00 |
| 10/21/2022 | 79 | 62.1 | 42 | 28 | 20.2 | 13 | 47 | 23.1 | 9 | 18 | 8.8 | 0 | 24.9 | 24.8 | 24.7 | 0.00 |
| 10/20/2022 | 82 | 59.3 | 37 | 28 | 19.5 | 14 | 53 | 26.0 | 8 | 14 | 5.8 | 0 | 25.2 | 25.0 | 24.9 | 0.00 |
| 10/19/2022 | 80 | 58.0 | 37 | 33 | 23.3 | 13 | 79 | 34.6 | 8 | 28 | 8.0 | 0 | 25.2 | 25.2 | 25.1 | 0.00 |
| 10/18/2022 | 73 | 51.9 | 36 | 34 | 29.8 | 27 | 79 | 48.3 | 19 | 8 | 3.7 | 0 | 25.2 | 25.2 | 25.2 | 0.00 |
| 10/17/2022 | 65 | 48.3 | 34 | 32 | 28.3 | 25 | 82 | 50.0 | 26 | 8 | 3.8 | 0 | 25.2 | 25.2 | 25.1 | 0.00 |
| 10/16/2022 | 62 | 51.1 | 41 | 39 | 34.4 | 26 | 80 | 54.6 | 36 | 9 | 4.4 | 0 | 25.3 | 25.2 | 25.2 | 0.00 |
| 10/15/2022 | 65 | 53.5 | 42 | 37 | 31.2 | 22 | 57 | 43.5 | 31 | 13 | 5.3 | 0 | 25.2 | 25.1 | 25.0 | 0.00 |
| 10/14/2022 | 79 | 56.8 | 34 | 37 | 25.5 | 18 | 76 | 38.8 | 11 | 12 | 4.8 | 0 | 25.0 | 24.9 | 24.9 | 0.00 |
| 10/13/2022 | 69 | 54.5 | 34 | 34 | 31.1 | 28 | 89 | 45.8 | 24 | 22 | 7.9 | 0 | 25.2 | 25.1 | 25.0 | 0.00 |
| 10/12/2022 | 69 | 44.0 | 35 | 31 | 31.0 | 31 | 60 | 60.0 | 60 | 5 | 5.0 | 5 | 25.2 | 25.2 | 25.2 | 0.00 |
| 10/10/2022 | 77 | 59.8 | 40 | 35 | 30.6 | 25 | 73 | 38.6 | 15 | 12 | 4.8 | 0 | 25.1 | 25.0 | 24.9 | 0.00 |
| 10/9/2022 | 74 | 57.0 | 39 | 39 | 33.3 | 28 | 86 | 48.3 | 19 | 8 | 4.3 | 0 | 25.2 | 25.2 | 25.1 | 0.00 |
| 10/8/2022 | 68 | 50.5 | 35 | 41 | 37.4 | 34 | 96 | 66.6 | 30 | 6 | 3.4 | 0 | 25.3 | 25.3 | 25.2 | 0.00 |
| 10/7/2022 | 52 | 45.3 | 39 | 45 | 38.9 | 36 | 93 | 79.1 | 58 | 16 | 6.8 | 0 | 25.4 | 25.3 | 25.3 | 0.00 |
| 10/6/2022 | 73 | 57.1 | 41 | 44 | 38.3 | 34 | 86 | 54.1 | 27 | 15 | 6.4 | 0 | 25.3 | 25.2 | 25.2 | 0.00 |
| 10/5/2022 | 73 | 57.2 | 43 | 47 | 40.0 | 35 | 86 | 57.5 | 27 | 8 | 4.7 | 0 | 25.3 | 25.2 | 25.2 | 0.00 |
| 10/4/2022 | 68 | 55.5 | 42 | 48 | 46.1 | 42 | 93 | 73.0 | 45 | 16 | 5.2 | 0 | 25.2 | 25.1 | 25.1 | 0.08 |
| 10/3/2022 | 76 | 57.9 | 48 | 53 | 47.0 | 42 | 86 | 69.6 | 34 | 16 | 5.8 | 0 | 25.2 | 25.1 | 25.1 | 0.00 |
| 10/2/2022 | 73 | 56.8 | 46 | 51 | 48.3 | 44 | 97 | 75.5 | 46 | 10 | 5.1 | 0 | 25.1 | 25.1 | 25.1 | 0.00 |
| 10/1/2022 | 72 | 59.0 | 47 | 54 | 50.3 | 46 | 97 | 75.9 | 45 | 16 | 6.2 | 0 | 25.1 | 25.0 | 25.0 | 0.00 |